date,time,SUV Intensity [MED/Hr],UV Index,Daily total [MED],Since Last [MED]
17/03/2023,00:04:09,0.001,0.0,0.0,0.0
17/03/2023,00:05:08,0.000,0.0,0.0,0.0
17/03/2023,00:06:08,0.000,0.0,0.0,0.0
17/03/2023,00:07:09,-0.001,0.0,0.0,0.0
17/03/2023,00:08:09,0.000,0.0,0.0,0.0
17/03/2023,00:09:08,0.000,0.0,0.0,0.0
17/03/2023,00:10:09,-0.001,0.0,0.0,0.0
17/03/2023,00:11:10,0.000,0.0,0.0,0.0
17/03/2023,00:12:08,0.000,0.0,0.0,0.0
17/03/2023,00:13:09,0.001,0.0,0.0,0.0
17/03/2023,00:14:08,0.000,0.0,0.0,0.0
17/03/2023,00:15:08,-0.000,0.0,0.0,0.0
17/03/2023,00:16:09,0.000,0.0,0.0,0.0
17/03/2023,00:17:09,0.000,0.0,0.0,0.0
17/03/2023,00:18:08,0.001,0.0,0.0,0.0
17/03/2023,00:19:09,-0.000,0.0,0.0,0.0
17/03/2023,00:20:09,0.000,0.0,0.0,0.0
17/03/2023,00:21:09,-0.001,0.0,0.0,0.0
17/03/2023,00:22:08,-0.000,0.0,0.0,0.0
17/03/2023,00:23:09,-0.000,0.0,0.0,0.0
17/03/2023,00:24:09,0.000,0.0,0.0,0.0
17/03/2023,00:25:09,-0.000,0.0,0.0,0.0
17/03/2023,00:26:09,-0.001,0.0,0.0,0.0
17/03/2023,00:27:09,-0.000,0.0,0.0,0.0
17/03/2023,00:28:08,0.000,0.0,0.0,0.0
17/03/2023,00:29:08,0.000,0.0,0.0,0.0
17/03/2023,00:30:09,-0.000,0.0,0.0,0.0
17/03/2023,00:31:09,0.000,0.0,0.0,0.0
17/03/2023,00:32:08,-0.000,0.0,0.0,0.0
17/03/2023,00:33:09,-0.001,0.0,0.0,0.0
17/03/2023,00:34:09,-0.001,0.0,0.0,0.0
17/03/2023,00:35:09,-0.000,0.0,0.0,0.0
17/03/2023,00:36:09,-0.000,0.0,0.0,0.0
17/03/2023,00:37:09,-0.000,0.0,0.0,0.0
17/03/2023,00:38:09,0.000,0.0,0.0,0.0
17/03/2023,00:39:09,0.000,0.0,0.0,0.0
17/03/2023,00:40:08,0.000,0.0,0.0,0.0
17/03/2023,00:41:09,-0.000,0.0,0.0,0.0
17/03/2023,00:42:09,-0.000,0.0,0.0,0.0
17/03/2023,00:43:09,-0.000,0.0,0.0,0.0
17/03/2023,00:44:08,0.000,0.0,0.0,0.0
17/03/2023,00:45:09,-0.000,0.0,0.0,0.0
17/03/2023,00:46:09,-0.001,0.0,0.0,0.0
17/03/2023,00:47:09,-0.000,0.0,0.0,0.0
17/03/2023,00:48:09,-0.000,0.0,0.0,0.0
17/03/2023,00:49:09,-0.000,0.0,0.0,0.0
17/03/2023,00:50:09,-0.000,0.0,0.0,0.0
17/03/2023,00:51:09,-0.001,0.0,0.0,0.0
17/03/2023,00:52:09,-0.000,0.0,0.0,0.0
17/03/2023,00:53:09,0.000,0.0,0.0,0.0
17/03/2023,00:54:09,0.000,0.0,0.0,0.0
17/03/2023,00:55:08,-0.000,0.0,0.0,0.0
17/03/2023,00:56:09,-0.001,0.0,0.0,0.0
17/03/2023,00:57:09,-0.000,0.0,0.0,0.0
17/03/2023,00:58:09,0.000,0.0,0.0,0.0
17/03/2023,00:59:09,-0.001,0.0,0.0,0.0
17/03/2023,01:00:09,0.001,0.0,0.0,0.0
17/03/2023,01:01:09,-0.001,0.0,0.0,0.0
17/03/2023,01:02:09,0.000,0.0,0.0,0.0
17/03/2023,01:03:09,-0.000,0.0,0.0,0.0
17/03/2023,01:04:09,0.000,0.0,0.0,0.0
17/03/2023,01:05:09,-0.000,0.0,0.0,0.0
17/03/2023,01:06:09,-0.000,0.0,0.0,0.0
17/03/2023,01:07:09,-0.000,0.0,0.0,0.0
17/03/2023,01:08:09,-0.000,0.0,0.0,0.0
17/03/2023,01:09:08,0.001,0.0,0.0,0.0
17/03/2023,01:10:09,-0.001,0.0,0.0,0.0
17/03/2023,01:11:09,0.000,0.0,0.0,0.0
17/03/2023,01:12:09,-0.001,0.0,0.0,0.0
17/03/2023,01:13:08,-0.000,0.0,0.0,0.0
17/03/2023,01:14:09,0.001,0.0,0.0,0.0
17/03/2023,01:15:08,0.000,0.0,0.0,0.0
17/03/2023,01:16:08,-0.001,0.0,0.0,0.0
17/03/2023,01:17:08,0.000,0.0,0.0,0.0
17/03/2023,01:18:09,0.000,0.0,0.0,0.0
17/03/2023,01:19:09,-0.001,0.0,0.0,0.0
17/03/2023,01:20:08,0.000,0.0,0.0,0.0
17/03/2023,01:21:09,-0.000,0.0,0.0,0.0
17/03/2023,01:22:09,-0.001,0.0,0.0,0.0
17/03/2023,01:23:09,0.000,0.0,0.0,0.0
17/03/2023,01:24:09,-0.000,0.0,0.0,0.0
17/03/2023,01:25:09,-0.000,0.0,0.0,0.0
17/03/2023,01:26:09,0.000,0.0,0.0,0.0
17/03/2023,01:27:09,-0.000,0.0,0.0,0.0
17/03/2023,01:28:09,-0.001,0.0,0.0,0.0
17/03/2023,01:29:09,-0.000,0.0,0.0,0.0
17/03/2023,01:30:09,0.000,0.0,0.0,0.0
17/03/2023,01:31:09,0.001,0.0,0.0,0.0
17/03/2023,01:32:09,-0.001,0.0,0.0,0.0
17/03/2023,01:33:09,0.000,0.0,0.0,0.0
17/03/2023,01:34:08,-0.000,0.0,0.0,0.0
17/03/2023,01:35:08,-0.000,0.0,0.0,0.0
17/03/2023,01:36:09,-0.000,0.0,0.0,0.0
17/03/2023,01:37:09,-0.001,0.0,0.0,0.0
17/03/2023,01:38:08,-0.000,0.0,0.0,0.0
17/03/2023,01:39:10,-0.000,0.0,0.0,0.0
17/03/2023,01:40:09,-0.001,0.0,0.0,0.0
17/03/2023,01:41:09,-0.000,0.0,0.0,0.0
17/03/2023,01:42:09,0.000,0.0,0.0,0.0
17/03/2023,01:43:09,0.001,0.0,0.0,0.0
17/03/2023,01:44:09,-0.000,0.0,0.0,0.0
17/03/2023,01:45:09,-0.000,0.0,0.0,0.0
17/03/2023,01:46:09,-0.000,0.0,0.0,0.0
17/03/2023,01:47:10,-0.000,0.0,0.0,0.0
17/03/2023,01:48:08,0.000,0.0,0.0,0.0
17/03/2023,01:49:09,0.000,0.0,0.0,0.0
17/03/2023,01:50:09,0.000,0.0,0.0,0.0
17/03/2023,01:51:09,-0.001,0.0,0.0,0.0
17/03/2023,01:52:09,-0.001,0.0,0.0,0.0
17/03/2023,01:53:10,-0.000,0.0,0.0,0.0
17/03/2023,01:54:09,0.001,0.0,0.0,0.0
17/03/2023,01:55:08,-0.001,0.0,0.0,0.0
17/03/2023,01:56:09,0.000,0.0,0.0,0.0
17/03/2023,01:57:09,-0.000,0.0,0.0,0.0
17/03/2023,01:58:09,-0.001,0.0,0.0,0.0
17/03/2023,01:59:09,-0.001,0.0,0.0,0.0
17/03/2023,02:00:09,-0.000,0.0,0.0,0.0
17/03/2023,02:01:09,0.000,0.0,0.0,0.0
17/03/2023,02:02:09,0.000,0.0,0.0,0.0
17/03/2023,02:03:09,-0.000,0.0,0.0,0.0
17/03/2023,02:04:09,0.001,0.0,0.0,0.0
17/03/2023,02:05:09,-0.001,0.0,0.0,0.0
17/03/2023,02:06:09,-0.000,0.0,0.0,0.0
17/03/2023,02:07:08,-0.001,0.0,0.0,0.0
17/03/2023,02:08:09,0.000,0.0,0.0,0.0
17/03/2023,02:09:08,-0.000,0.0,0.0,0.0
17/03/2023,02:10:08,-0.001,0.0,0.0,0.0
17/03/2023,02:11:09,-0.000,0.0,0.0,0.0
17/03/2023,02:12:09,0.000,0.0,0.0,0.0
17/03/2023,02:13:09,-0.000,0.0,0.0,0.0
17/03/2023,02:14:09,0.001,0.0,0.0,0.0
17/03/2023,02:15:09,-0.000,0.0,0.0,0.0
17/03/2023,02:16:09,-0.001,0.0,0.0,0.0
17/03/2023,02:17:09,-0.000,0.0,0.0,0.0
17/03/2023,02:18:09,-0.000,0.0,0.0,0.0
17/03/2023,02:19:09,-0.000,0.0,0.0,0.0
17/03/2023,02:20:09,0.000,0.0,0.0,0.0
17/03/2023,02:21:09,-0.001,0.0,0.0,0.0
17/03/2023,02:22:09,-0.000,0.0,0.0,0.0
17/03/2023,02:23:09,0.001,0.0,0.0,0.0
17/03/2023,02:24:09,-0.000,0.0,0.0,0.0
17/03/2023,02:25:09,-0.000,0.0,0.0,0.0
17/03/2023,02:26:09,0.000,0.0,0.0,0.0
17/03/2023,02:27:09,-0.000,0.0,0.0,0.0
17/03/2023,02:28:09,-0.000,0.0,0.0,0.0
17/03/2023,02:29:09,-0.000,0.0,0.0,0.0
17/03/2023,02:30:09,-0.000,0.0,0.0,0.0
17/03/2023,02:31:08,0.000,0.0,0.0,0.0
17/03/2023,02:32:09,-0.000,0.0,0.0,0.0
17/03/2023,02:33:09,0.000,0.0,0.0,0.0
17/03/2023,02:34:09,0.000,0.0,0.0,0.0
17/03/2023,02:35:09,0.000,0.0,0.0,0.0
17/03/2023,02:36:09,0.001,0.0,0.0,0.0
17/03/2023,02:37:09,-0.000,0.0,0.0,0.0
17/03/2023,02:38:09,-0.000,0.0,0.0,0.0
17/03/2023,02:39:09,-0.001,0.0,0.0,0.0
17/03/2023,02:40:09,0.000,0.0,0.0,0.0
17/03/2023,02:41:09,-0.000,0.0,0.0,0.0
17/03/2023,02:42:09,-0.000,0.0,0.0,0.0
17/03/2023,02:43:09,0.000,0.0,0.0,0.0
17/03/2023,02:44:09,0.001,0.0,0.0,0.0
17/03/2023,02:45:09,0.000,0.0,0.0,0.0
17/03/2023,02:46:09,0.000,0.0,0.0,0.0
17/03/2023,02:47:09,0.000,0.0,0.0,0.0
17/03/2023,02:48:09,0.000,0.0,0.0,0.0
17/03/2023,02:49:09,-0.000,0.0,0.0,0.0
17/03/2023,02:50:09,0.000,0.0,0.0,0.0
17/03/2023,02:51:09,0.001,0.0,0.0,0.0
17/03/2023,02:52:08,0.000,0.0,0.0,0.0
17/03/2023,02:53:09,0.001,0.0,0.0,0.0
17/03/2023,02:54:09,-0.001,0.0,0.0,0.0
17/03/2023,02:55:10,-0.000,0.0,0.0,0.0
17/03/2023,02:56:09,0.001,0.0,0.0,0.0
17/03/2023,02:57:09,0.000,0.0,0.0,0.0
17/03/2023,02:58:09,-0.001,0.0,0.0,0.0
17/03/2023,02:59:09,0.000,0.0,0.0,0.0
17/03/2023,03:00:09,-0.000,0.0,0.0,0.0
17/03/2023,03:01:09,0.000,0.0,0.0,0.0
17/03/2023,03:02:09,-0.000,0.0,0.0,0.0
17/03/2023,03:03:09,0.001,0.0,0.0,0.0
17/03/2023,03:04:09,-0.000,0.0,0.0,0.0
17/03/2023,03:05:09,-0.000,0.0,0.0,0.0
17/03/2023,03:06:09,0.001,0.0,0.0,0.0
17/03/2023,03:07:09,0.000,0.0,0.0,0.0
17/03/2023,03:08:09,0.000,0.0,0.0,0.0
17/03/2023,03:09:09,-0.000,0.0,0.0,0.0
17/03/2023,03:10:09,-0.000,0.0,0.0,0.0
17/03/2023,03:11:09,0.000,0.0,0.0,0.0
17/03/2023,03:12:09,0.000,0.0,0.0,0.0
17/03/2023,03:13:09,0.000,0.0,0.0,0.0
17/03/2023,03:14:09,0.000,0.0,0.0,0.0
17/03/2023,03:15:08,-0.001,0.0,0.0,0.0
17/03/2023,03:16:09,0.000,0.0,0.0,0.0
17/03/2023,03:17:09,0.000,0.0,0.0,0.0
17/03/2023,03:18:09,0.000,0.0,0.0,0.0
17/03/2023,03:19:09,-0.000,0.0,0.0,0.0
17/03/2023,03:20:09,0.000,0.0,0.0,0.0
17/03/2023,03:21:09,0.000,0.0,0.0,0.0
17/03/2023,03:22:09,0.001,0.0,0.0,0.0
17/03/2023,03:23:09,0.000,0.0,0.0,0.0
17/03/2023,03:24:09,0.000,0.0,0.0,0.0
17/03/2023,03:25:09,-0.000,0.0,0.0,0.0
17/03/2023,03:26:09,0.000,0.0,0.0,0.0
17/03/2023,03:27:09,0.001,0.0,0.0,0.0
17/03/2023,03:28:09,0.000,0.0,0.0,0.0
17/03/2023,03:29:09,-0.000,0.0,0.0,0.0
17/03/2023,03:30:09,-0.000,0.0,0.0,0.0
17/03/2023,03:31:09,-0.001,0.0,0.0,0.0
17/03/2023,03:32:09,-0.001,0.0,0.0,0.0
17/03/2023,03:33:09,-0.001,0.0,0.0,0.0
17/03/2023,03:34:09,0.001,0.0,0.0,0.0
17/03/2023,03:35:09,-0.001,0.0,0.0,0.0
17/03/2023,03:36:09,0.001,0.0,0.0,0.0
17/03/2023,03:37:09,-0.000,0.0,0.0,0.0
17/03/2023,03:38:09,-0.000,0.0,0.0,0.0
17/03/2023,03:39:09,0.000,0.0,0.0,0.0
17/03/2023,03:40:09,0.001,0.0,0.0,0.0
17/03/2023,03:41:12,-0.000,0.0,0.0,0.0
17/03/2023,03:42:10,-0.001,0.0,0.0,0.0
17/03/2023,03:43:09,-0.000,0.0,0.0,0.0
17/03/2023,03:44:09,-0.001,0.0,0.0,0.0
17/03/2023,03:45:09,-0.000,0.0,0.0,0.0
17/03/2023,03:46:09,0.001,0.0,0.0,0.0
17/03/2023,03:47:09,0.000,0.0,0.0,0.0
17/03/2023,03:48:09,-0.001,0.0,0.0,0.0
17/03/2023,03:49:09,0.000,0.0,0.0,0.0
17/03/2023,03:50:09,0.000,0.0,0.0,0.0
17/03/2023,03:51:09,0.000,0.0,0.0,0.0
17/03/2023,03:52:09,-0.001,0.0,0.0,0.0
17/03/2023,03:53:09,-0.001,0.0,0.0,0.0
17/03/2023,03:54:09,-0.000,0.0,0.0,0.0
17/03/2023,03:55:09,0.000,0.0,0.0,0.0
17/03/2023,03:56:09,0.001,0.0,0.0,0.0
17/03/2023,03:57:10,-0.000,0.0,0.0,0.0
17/03/2023,03:58:09,-0.000,0.0,0.0,0.0
17/03/2023,03:59:08,-0.000,0.0,0.0,0.0
17/03/2023,04:00:09,0.000,0.0,0.0,0.0
17/03/2023,04:01:09,0.000,0.0,0.0,0.0
17/03/2023,04:02:09,-0.000,0.0,0.0,0.0
17/03/2023,04:03:09,-0.000,0.0,0.0,0.0
17/03/2023,04:04:09,-0.000,0.0,0.0,0.0
17/03/2023,04:05:09,-0.000,0.0,0.0,0.0
17/03/2023,04:06:09,-0.000,0.0,0.0,0.0
17/03/2023,04:07:09,-0.001,0.0,0.0,0.0
17/03/2023,04:08:09,0.001,0.0,0.0,0.0
17/03/2023,04:09:09,-0.001,0.0,0.0,0.0
17/03/2023,04:10:09,0.000,0.0,0.0,0.0
17/03/2023,04:11:09,-0.000,0.0,0.0,0.0
17/03/2023,04:12:09,-0.000,0.0,0.0,0.0
17/03/2023,04:13:10,-0.000,0.0,0.0,0.0
17/03/2023,04:14:09,0.000,0.0,0.0,0.0
17/03/2023,04:15:09,-0.001,0.0,0.0,0.0
17/03/2023,04:16:09,-0.000,0.0,0.0,0.0
17/03/2023,04:17:09,-0.000,0.0,0.0,0.0
17/03/2023,04:18:09,-0.001,0.0,0.0,0.0
17/03/2023,04:19:09,0.000,0.0,0.0,0.0
17/03/2023,04:20:09,-0.000,0.0,0.0,0.0
17/03/2023,04:21:09,0.000,0.0,0.0,0.0
17/03/2023,04:22:09,-0.001,0.0,0.0,0.0
17/03/2023,04:23:09,-0.001,0.0,0.0,0.0
17/03/2023,04:24:09,0.000,0.0,0.0,0.0
17/03/2023,04:25:09,0.000,0.0,0.0,0.0
17/03/2023,04:26:09,0.001,0.0,0.0,0.0
17/03/2023,04:27:09,0.001,0.0,0.0,0.0
17/03/2023,04:28:09,-0.000,0.0,0.0,0.0
17/03/2023,04:29:09,0.001,0.0,0.0,0.0
17/03/2023,04:30:09,0.000,0.0,0.0,0.0
17/03/2023,04:31:09,0.000,0.0,0.0,0.0
17/03/2023,04:32:09,0.000,0.0,0.0,0.0
17/03/2023,04:33:09,0.001,0.0,0.0,0.0
17/03/2023,04:34:09,0.000,0.0,0.0,0.0
17/03/2023,04:35:09,0.001,0.0,0.0,0.0
17/03/2023,04:36:09,-0.001,0.0,0.0,0.0
17/03/2023,04:37:09,0.001,0.0,0.0,0.0
17/03/2023,04:38:10,-0.000,0.0,0.0,0.0
17/03/2023,04:39:09,0.000,0.0,0.0,0.0
17/03/2023,04:40:10,0.001,0.0,0.0,0.0
17/03/2023,04:41:09,0.001,0.0,0.0,0.0
17/03/2023,04:42:09,-0.001,0.0,0.0,0.0
17/03/2023,04:43:09,0.000,0.0,0.0,0.0
17/03/2023,04:44:09,0.000,0.0,0.0,0.0
17/03/2023,04:45:09,0.000,0.0,0.0,0.0
17/03/2023,04:46:09,0.001,0.0,0.0,0.0
17/03/2023,04:47:09,0.001,0.0,0.0,0.0
17/03/2023,04:48:09,-0.000,0.0,0.0,0.0
17/03/2023,04:49:10,0.001,0.0,0.0,0.0
17/03/2023,04:50:09,0.000,0.0,0.0,0.0
17/03/2023,04:51:10,0.001,0.0,0.0,0.0
17/03/2023,04:52:09,0.000,0.0,0.0,0.0
17/03/2023,04:53:09,-0.000,0.0,0.0,0.0
17/03/2023,04:54:09,0.001,0.0,0.0,0.0
17/03/2023,04:55:09,0.000,0.0,0.0,0.0
17/03/2023,04:56:09,0.000,0.0,0.0,0.0
17/03/2023,04:57:09,0.001,0.0,0.0,0.0
17/03/2023,04:58:09,0.000,0.0,0.0,0.0
17/03/2023,04:59:10,-0.000,0.0,0.0,0.0
17/03/2023,05:00:09,0.000,0.0,0.0,0.0
17/03/2023,05:01:09,-0.000,0.0,0.0,0.0
17/03/2023,05:02:09,0.000,0.0,0.0,0.0
17/03/2023,05:03:09,-0.001,0.0,0.0,0.0
17/03/2023,05:04:09,0.000,0.0,0.0,0.0
17/03/2023,05:05:09,0.000,0.0,0.0,0.0
17/03/2023,05:06:09,-0.001,0.0,0.0,0.0
17/03/2023,05:07:10,0.001,0.0,0.0,0.0
17/03/2023,05:08:09,-0.001,0.0,0.0,0.0
17/03/2023,05:09:10,0.000,0.0,0.0,0.0
17/03/2023,05:10:09,-0.001,0.0,0.0,0.0
17/03/2023,05:11:09,0.000,0.0,0.0,0.0
17/03/2023,05:12:09,0.000,0.0,0.0,0.0
17/03/2023,05:13:09,0.000,0.0,0.0,0.0
17/03/2023,05:14:09,0.000,0.0,0.0,0.0
17/03/2023,05:15:09,0.001,0.0,0.0,0.0
17/03/2023,05:16:09,-0.000,0.0,0.0,0.0
17/03/2023,05:17:09,0.000,0.0,0.0,0.0
17/03/2023,05:18:09,0.000,0.0,0.0,0.0
17/03/2023,05:19:10,-0.001,0.0,0.0,0.0
17/03/2023,05:20:10,0.000,0.0,0.0,0.0
17/03/2023,05:21:09,-0.001,0.0,0.0,0.0
17/03/2023,05:22:09,0.000,0.0,0.0,0.0
17/03/2023,05:23:09,0.001,0.0,0.0,0.0
17/03/2023,05:24:09,0.000,0.0,0.0,0.0
17/03/2023,05:25:09,-0.001,0.0,0.0,0.0
17/03/2023,05:26:09,0.000,0.0,0.0,0.0
17/03/2023,05:27:09,0.000,0.0,0.0,0.0
17/03/2023,05:28:09,0.000,0.0,0.0,0.0
17/03/2023,05:29:10,0.001,0.0,0.0,0.0
17/03/2023,05:30:10,0.001,0.0,0.0,0.0
17/03/2023,05:31:09,0.000,0.0,0.0,0.0
17/03/2023,05:32:10,0.000,0.0,0.0,0.0
17/03/2023,05:33:10,0.000,0.0,0.0,0.0
17/03/2023,05:34:09,0.000,0.0,0.0,0.0
17/03/2023,05:35:09,0.000,0.0,0.0,0.0
17/03/2023,05:36:09,0.000,0.0,0.0,0.0
17/03/2023,05:37:10,-0.000,0.0,0.0,0.0
17/03/2023,05:38:09,-0.001,0.0,0.0,0.0
17/03/2023,05:39:10,0.000,0.0,0.0,0.0
17/03/2023,05:40:10,0.001,0.0,0.0,0.0
17/03/2023,05:41:09,0.000,0.0,0.0,0.0
17/03/2023,05:42:09,-0.001,0.0,0.0,0.0
17/03/2023,05:43:09,0.000,0.0,0.0,0.0
17/03/2023,05:44:09,0.000,0.0,0.0,0.0
17/03/2023,05:45:09,0.001,0.0,0.0,0.0
17/03/2023,05:46:09,0.001,0.0,0.0,0.0
17/03/2023,05:47:09,0.000,0.0,0.0,0.0
17/03/2023,05:48:09,-0.001,0.0,0.0,0.0
17/03/2023,05:49:09,-0.000,0.0,0.0,0.0
17/03/2023,05:50:09,0.001,0.0,0.0,0.0
17/03/2023,05:51:09,0.000,0.0,0.0,0.0
17/03/2023,05:52:09,-0.000,0.0,0.0,0.0
17/03/2023,05:53:09,0.000,0.0,0.0,0.0
17/03/2023,05:54:09,0.001,0.0,0.0,0.0
17/03/2023,05:55:09,0.000,0.0,0.0,0.0
17/03/2023,05:56:09,0.000,0.0,0.0,0.0
17/03/2023,05:57:09,-0.000,0.0,0.0,0.0
17/03/2023,05:58:09,0.000,0.0,0.0,0.0
17/03/2023,05:59:09,0.000,0.0,0.0,0.0
17/03/2023,06:00:10,0.000,0.0,0.0,0.0
17/03/2023,06:01:09,0.000,0.0,0.0,0.0
17/03/2023,06:02:09,0.001,0.0,0.0,0.0
17/03/2023,06:03:10,0.000,0.0,0.0,0.0
17/03/2023,06:04:09,0.000,0.0,0.0,0.0
17/03/2023,06:05:09,0.000,0.0,0.0,0.0
17/03/2023,06:06:09,0.000,0.0,0.0,0.0
17/03/2023,06:07:10,0.001,0.0,0.0,0.0
17/03/2023,06:08:09,0.001,0.0,0.0,0.0
17/03/2023,06:09:10,0.001,0.0,0.0,0.0
17/03/2023,06:10:09,0.001,0.0,0.0,0.0
17/03/2023,06:11:09,0.001,0.0,0.0,0.0
17/03/2023,06:12:09,0.001,0.0,0.0,0.0
17/03/2023,06:13:10,-0.000,0.0,0.0,0.0
17/03/2023,06:14:09,0.001,0.0,0.0,0.0
17/03/2023,06:15:10,-0.000,0.0,0.0,0.0
17/03/2023,06:16:09,0.001,0.0,0.0,0.0
17/03/2023,06:17:10,0.000,0.0,0.0,0.0
17/03/2023,06:18:10,0.001,0.0,0.0,0.0
17/03/2023,06:19:10,0.001,0.0,0.0,0.0
17/03/2023,06:20:10,0.001,0.0,0.0,0.0
17/03/2023,06:21:09,0.000,0.0,0.0,0.0
17/03/2023,06:22:09,0.001,0.0,0.0,0.0
17/03/2023,06:23:09,0.001,0.0,0.0,0.0
17/03/2023,06:24:09,0.001,0.0,0.0,0.0
17/03/2023,06:25:09,0.002,0.0,0.0,0.0
17/03/2023,06:26:09,0.002,0.0,0.0,0.0
17/03/2023,06:27:09,0.002,0.0,0.0,0.0
17/03/2023,06:28:10,0.002,0.0,0.0,0.0
17/03/2023,06:29:09,0.003,0.0,0.0,0.0
17/03/2023,06:30:10,0.002,0.0,0.0,0.0
17/03/2023,06:31:09,0.002,0.0,0.0,0.0
17/03/2023,06:32:10,0.003,0.0,0.0,0.0
17/03/2023,06:33:09,0.003,0.0,0.0,0.0
17/03/2023,06:34:09,0.002,0.0,0.0,0.0
17/03/2023,06:35:09,0.002,0.0,0.0,0.0
17/03/2023,06:36:09,0.003,0.0,0.0,0.0
17/03/2023,06:37:09,0.003,0.0,0.0,0.0
17/03/2023,06:38:10,0.003,0.0,0.0,0.0
17/03/2023,06:39:09,0.003,0.0,0.0,0.0
17/03/2023,06:40:10,0.004,0.0,0.0,0.0
17/03/2023,06:41:10,0.004,0.0,0.0,0.0
17/03/2023,06:42:10,0.006,0.0,0.0,0.0
17/03/2023,06:43:10,0.005,0.0,0.0,0.0
17/03/2023,06:44:09,0.005,0.0,0.0,0.0
17/03/2023,06:45:10,0.004,0.0,0.0,0.0
17/03/2023,06:46:10,0.005,0.0,0.0,0.0
17/03/2023,06:47:09,0.005,0.0,0.0,0.0
17/03/2023,06:48:10,0.004,0.0,0.0,0.0
17/03/2023,06:49:09,0.005,0.0,0.0,0.0
17/03/2023,06:50:09,0.005,0.0,0.0,0.0
17/03/2023,06:51:09,0.006,0.0,0.0,0.0
17/03/2023,06:52:09,0.006,0.0,0.0,0.0
17/03/2023,06:53:09,0.006,0.0,0.0,0.0
17/03/2023,06:54:09,0.006,0.0,0.0,0.0
17/03/2023,06:55:10,0.006,0.0,0.0,0.0
17/03/2023,06:56:09,0.006,0.0,0.0,0.0
17/03/2023,06:57:10,0.006,0.0,0.0,0.0
17/03/2023,06:58:09,0.006,0.0,0.0,0.0
17/03/2023,06:59:10,0.006,0.0,0.0,0.0
17/03/2023,07:00:09,0.006,0.0,0.001,0.001
17/03/2023,07:01:10,0.007,0.0,0.001,0.0
17/03/2023,07:02:09,0.008,0.0,0.001,0.0
17/03/2023,07:03:09,0.009,0.0,0.001,0.0
17/03/2023,07:04:09,0.010,0.0,0.001,0.0
17/03/2023,07:05:10,0.011,0.0,0.001,0.0
17/03/2023,07:06:09,0.011,0.0,0.001,0.0
17/03/2023,07:07:09,0.011,0.0,0.002,0.001
17/03/2023,07:08:10,0.011,0.0,0.002,0.0
17/03/2023,07:09:10,0.012,0.0,0.002,0.0
17/03/2023,07:10:10,0.011,0.0,0.002,0.0
17/03/2023,07:11:10,0.012,0.0,0.002,0.0
17/03/2023,07:12:10,0.014,0.0,0.003,0.001
17/03/2023,07:13:10,0.015,0.0,0.003,0.0
17/03/2023,07:14:09,0.015,0.0,0.003,0.0
17/03/2023,07:15:09,0.016,0.0,0.003,0.0
17/03/2023,07:16:10,0.019,0.0,0.004,0.001
17/03/2023,07:17:10,0.019,0.0,0.004,0.0
17/03/2023,07:18:09,0.019,0.0,0.004,0.0
17/03/2023,07:19:10,0.020,0.0,0.005,0.001
17/03/2023,07:20:09,0.020,0.0,0.005,0.0
17/03/2023,07:21:09,0.020,0.0,0.005,0.0
17/03/2023,07:22:09,0.020,0.0,0.006,0.001
17/03/2023,07:23:10,0.019,0.0,0.006,0.0
17/03/2023,07:24:10,0.021,0.0,0.006,0.0
17/03/2023,07:25:10,0.022,0.0,0.007,0.001
17/03/2023,07:26:10,0.023,0.0,0.007,0.0
17/03/2023,07:27:10,0.023,0.0,0.007,0.0
17/03/2023,07:28:09,0.023,0.0,0.008,0.001
17/03/2023,07:29:09,0.023,0.0,0.008,0.0
17/03/2023,07:30:09,0.023,0.0,0.009,0.001
17/03/2023,07:31:09,0.023,0.0,0.009,0.0
17/03/2023,07:32:10,0.023,0.0,0.009,0.0
17/03/2023,07:33:09,0.022,0.0,0.01,0.001
17/03/2023,07:34:09,0.020,0.0,0.01,0.0
17/03/2023,07:35:09,0.019,0.0,0.01,0.0
17/03/2023,07:36:09,0.021,0.0,0.011,0.001
17/03/2023,07:37:10,0.023,0.0,0.011,0.0
17/03/2023,07:38:09,0.022,0.0,0.011,0.0
17/03/2023,07:39:09,0.024,0.0,0.012,0.001
17/03/2023,07:40:10,0.027,0.0,0.012,0.0
17/03/2023,07:41:09,0.030,0.0,0.013,0.001
17/03/2023,07:42:09,0.036,0.0,0.013,0.0
17/03/2023,07:43:09,0.040,0.0,0.014,0.001
17/03/2023,07:44:09,0.044,0.0,0.015,0.001
17/03/2023,07:45:10,0.049,0.0,0.015,0.0
17/03/2023,07:46:09,0.054,0.0,0.016,0.001
17/03/2023,07:47:10,0.060,0.0,0.017,0.001
17/03/2023,07:48:10,0.063,0.0,0.018,0.001
17/03/2023,07:49:10,0.066,0.0,0.019,0.001
17/03/2023,07:50:09,0.068,0.0,0.02,0.001
17/03/2023,07:51:09,0.069,0.0,0.022,0.002
17/03/2023,07:52:09,0.069,0.0,0.023,0.001
17/03/2023,07:53:10,0.071,0.0,0.024,0.001
17/03/2023,07:54:09,0.072,0.0,0.025,0.001
17/03/2023,07:55:10,0.072,0.0,0.026,0.001
17/03/2023,07:56:09,0.075,0.0,0.028,0.002
17/03/2023,07:57:10,0.075,0.0,0.029,0.001
17/03/2023,07:58:09,0.076,0.0,0.03,0.001
17/03/2023,07:59:10,0.078,0.0,0.031,0.001
17/03/2023,08:00:09,0.080,0.0,0.033,0.002
17/03/2023,08:01:09,0.082,0.0,0.034,0.001
17/03/2023,08:02:09,0.082,0.0,0.035,0.001
17/03/2023,08:03:09,0.084,0.0,0.037,0.002
17/03/2023,08:04:09,0.085,0.0,0.038,0.001
17/03/2023,08:05:09,0.087,0.0,0.04,0.002
17/03/2023,08:06:09,0.089,0.0,0.041,0.001
17/03/2023,08:07:10,0.092,0.0,0.043,0.002
17/03/2023,08:08:09,0.093,0.0,0.044,0.001
17/03/2023,08:09:10,0.096,0.0,0.046,0.002
17/03/2023,08:10:09,0.097,0.0,0.047,0.001
17/03/2023,08:11:09,0.097,0.0,0.049,0.002
17/03/2023,08:12:10,0.097,0.0,0.051,0.002
17/03/2023,08:13:10,0.098,0.0,0.052,0.001
17/03/2023,08:14:10,0.097,0.0,0.054,0.002
17/03/2023,08:15:10,0.097,0.0,0.055,0.001
17/03/2023,08:16:11,0.097,0.0,0.057,0.002
17/03/2023,08:17:10,0.098,0.0,0.059,0.002
17/03/2023,08:18:09,0.097,0.0,0.06,0.001
17/03/2023,08:19:09,0.099,0.0,0.062,0.002
17/03/2023,08:20:09,0.101,0.0,0.064,0.002
17/03/2023,08:21:09,0.100,0.0,0.065,0.001
17/03/2023,08:22:11,0.102,0.0,0.067,0.002
17/03/2023,08:23:10,0.103,0.0,0.069,0.002
17/03/2023,08:24:10,0.105,0.0,0.07,0.001
17/03/2023,08:25:10,0.107,0.0,0.072,0.002
17/03/2023,08:26:10,0.111,0.0,0.074,0.002
17/03/2023,08:27:10,0.112,0.0,0.076,0.002
17/03/2023,08:28:10,0.114,0.0,0.078,0.002
17/03/2023,08:29:10,0.117,0.0,0.08,0.002
17/03/2023,08:30:09,0.121,0.0,0.082,0.002
17/03/2023,08:31:10,0.125,0.0,0.084,0.002
17/03/2023,08:32:09,0.129,0.0,0.086,0.002
17/03/2023,08:33:10,0.131,0.0,0.088,0.002
17/03/2023,08:34:09,0.133,0.0,0.09,0.002
17/03/2023,08:35:10,0.135,0.0,0.092,0.002
17/03/2023,08:36:09,0.139,0.0,0.095,0.003
17/03/2023,08:37:09,0.136,0.0,0.097,0.002
17/03/2023,08:38:09,0.135,0.0,0.099,0.002
17/03/2023,08:39:09,0.135,0.0,0.102,0.003
17/03/2023,08:40:09,0.135,0.0,0.104,0.002
17/03/2023,08:41:09,0.136,0.0,0.106,0.002
17/03/2023,08:42:10,0.137,0.0,0.108,0.002
17/03/2023,08:43:10,0.139,0.0,0.111,0.003
17/03/2023,08:44:10,0.143,0.0,0.113,0.002
17/03/2023,08:45:10,0.146,0.0,0.115,0.002
17/03/2023,08:46:10,0.151,0.0,0.118,0.003
17/03/2023,08:47:10,0.155,0.0,0.12,0.002
17/03/2023,08:48:09,0.157,0.0,0.123,0.003
17/03/2023,08:49:10,0.161,0.0,0.126,0.003
17/03/2023,08:50:07,0.163,0.0,0.128,0.002
17/03/2023,08:51:09,0.163,0.0,0.131,0.003
17/03/2023,08:52:09,0.163,0.0,0.134,0.003
17/03/2023,08:53:09,0.160,0.0,0.136,0.002
17/03/2023,08:54:09,0.161,0.0,0.139,0.003
17/03/2023,08:55:10,0.163,0.0,0.142,0.003
17/03/2023,08:56:10,0.174,0.0,0.145,0.003
17/03/2023,08:57:10,0.178,0.0,0.148,0.003
17/03/2023,08:58:10,0.184,0.0,0.151,0.003
17/03/2023,08:59:09,0.176,0.0,0.154,0.003
17/03/2023,09:00:10,0.171,0.0,0.157,0.003
17/03/2023,09:01:11,0.171,0.0,0.159,0.002
17/03/2023,09:02:10,0.174,0.0,0.162,0.003
17/03/2023,09:03:09,0.172,0.0,0.165,0.003
17/03/2023,09:04:09,0.166,0.0,0.168,0.003
17/03/2023,09:05:09,0.153,0.0,0.171,0.003
17/03/2023,09:06:09,0.147,0.0,0.173,0.002
17/03/2023,09:07:09,0.153,0.0,0.176,0.003
17/03/2023,09:08:09,0.150,0.0,0.178,0.002
17/03/2023,09:09:09,0.148,0.0,0.181,0.003
17/03/2023,09:10:09,0.152,0.0,0.183,0.002
17/03/2023,09:11:10,0.156,0.0,0.186,0.003
17/03/2023,09:12:09,0.174,0.0,0.188,0.002
17/03/2023,09:13:10,0.185,0.0,0.191,0.003
17/03/2023,09:14:10,0.163,0.0,0.194,0.003
17/03/2023,09:15:10,0.149,0.0,0.197,0.003
17/03/2023,09:16:09,0.152,0.0,0.199,0.002
17/03/2023,09:17:09,0.158,0.0,0.202,0.003
17/03/2023,09:18:09,0.158,0.0,0.205,0.003
17/03/2023,09:19:10,0.177,0.0,0.207,0.002
17/03/2023,09:20:09,0.191,0.0,0.211,0.004
17/03/2023,09:21:09,0.197,0.0,0.214,0.003
17/03/2023,09:22:10,0.187,0.0,0.217,0.003
17/03/2023,09:23:12,0.181,0.0,0.22,0.003
17/03/2023,09:24:09,0.122,0.0,0.223,0.003
17/03/2023,09:25:10,0.132,0.0,0.225,0.002
17/03/2023,09:26:09,0.194,0.0,0.228,0.003
17/03/2023,09:27:09,0.183,0.0,0.231,0.003
17/03/2023,09:28:10,0.168,0.0,0.234,0.003
17/03/2023,09:29:10,0.166,0.0,0.237,0.003
17/03/2023,09:30:09,0.174,0.0,0.24,0.003
17/03/2023,09:31:32,0.185,0.0,0.244,0.004
17/03/2023,09:33:10,0.206,0.0,0.249,0.005
17/03/2023,09:34:09,0.204,0.0,0.253,0.004
17/03/2023,09:35:09,0.131,0.0,0.256,0.003
17/03/2023,09:36:09,0.175,0.0,0.258,0.002
17/03/2023,09:37:10,0.164,0.0,0.261,0.003
17/03/2023,09:38:10,0.152,0.0,0.264,0.003
17/03/2023,09:39:10,0.154,0.0,0.266,0.002
17/03/2023,09:40:10,0.157,0.0,0.269,0.003
17/03/2023,09:41:10,0.158,0.0,0.272,0.003
17/03/2023,09:42:10,0.150,0.0,0.274,0.002
17/03/2023,09:43:09,0.134,0.0,0.277,0.003
17/03/2023,09:44:10,0.122,0.0,0.279,0.002
17/03/2023,09:45:09,0.106,0.0,0.281,0.002
17/03/2023,09:46:09,0.093,0.0,0.282,0.001
17/03/2023,09:47:09,0.089,0.0,0.284,0.002
17/03/2023,09:48:10,0.106,0.0,0.285,0.001
17/03/2023,09:49:09,0.116,0.0,0.287,0.002
17/03/2023,09:50:09,0.100,0.0,0.289,0.002
17/03/2023,09:51:10,0.079,0.0,0.291,0.002
17/03/2023,09:52:10,0.067,0.0,0.292,0.001
17/03/2023,09:53:09,0.070,0.0,0.293,0.001
17/03/2023,09:54:09,0.084,0.0,0.294,0.001
17/03/2023,09:55:09,0.115,0.0,0.296,0.002
17/03/2023,09:56:10,0.160,0.0,0.298,0.002
17/03/2023,09:57:10,0.183,0.0,0.301,0.003
17/03/2023,09:58:10,0.198,0.0,0.304,0.003
17/03/2023,09:59:09,0.201,0.0,0.308,0.004
17/03/2023,10:00:10,0.198,0.0,0.311,0.003
17/03/2023,10:01:10,0.138,0.0,0.314,0.003
17/03/2023,10:02:10,0.172,0.0,0.317,0.003
17/03/2023,10:03:10,0.141,0.0,0.319,0.002
17/03/2023,10:04:09,0.124,0.0,0.321,0.002
17/03/2023,10:05:09,0.129,0.0,0.323,0.002
17/03/2023,10:06:10,0.136,0.0,0.326,0.003
17/03/2023,10:07:10,0.146,0.0,0.328,0.002
17/03/2023,10:08:10,0.172,0.0,0.331,0.003
17/03/2023,10:09:10,0.181,0.0,0.334,0.003
17/03/2023,10:10:10,0.181,0.0,0.337,0.003